Location: Unspecified
(43.4354°N, 0.0000°E)
Time: 20:21:37
(UTC+00:00)

Vanguard 1 Rocket - Pass Details

Date: 25 June 2019
Orbit: 651 x 4225 km, 34.3° (Epoch: 16 July)

Event Time Altitude Azimuth Distance (km) Brightness Sun altitude
Rises 21:17:48 0° 274° (W) 5,740 12.2 -13.2°
Reaches altitude 10° 21:22:56 10° 265° (W) 4,085 11.2 -13.8°
Maximum altitude 21:30:32 26° 214° (SSW) 2,142 9.1 -14.6°
Enters shadow 21:33:52 17° 172° (S) 2,229 8.9 -15.0°
